Location: Asbacherhof
(48.8543°N, 10.7903°E)
Time: 22:56:34
(UTC+00:00)

ADEOS II - Pass Details

Date: 26 May 2022
Orbit: 799 x 800 km, 98.6° (Epoch: 29 June)

Event Time Altitude Azimuth Distance (km) Brightness Sun altitude
Rises 23:57:33 0° 30° (NNE) 3,318 6.6 -19.4°
Reaches altitude 10° 00:01:04 10° 54° (NE) 2,381 5.2 -19.3°
Maximum altitude 00:03:52 14° 87° (E) 2,079 4.4 -19.2°
Drops below altitude 10° 00:06:40 10° 120° (ESE) 2,371 4.4 -19.1°
Enters shadow 00:07:48 - 129° (SE) 2,630 4.5 -19.0°
